Home   Weather   Lódz   Past weeks

Flag for Poland Past Weather in Lódz, Poland — Yesterday and Last 2 Weeks

50 °F

Passing clouds.

Feels Like: 46 °F
Forecast: 42 / 46 °F
Wind: 8 mph from West

Location: Lodz

Current Time: Oct 29, 2016 at 1:36:52 AM

Latest Report: Oct 29, 2016 at 12:00 AM

Visibility: 7 mi

Pressure: 30.24 "Hg

Humidity: 90%

Dew Point: 47 °F

Location of LódzLocation

Past Weather in Lódz — Graph


Lódz Temperature Yesterday

Maximum temperature yesterday: 51 °F (at 10:00 PM)
Minimum temperature yesterday: 36 °F (at 1:00 AM)
Average temperature yesterday: 46 °F

High & Low Weather Summary for the Past Weeks

High54 °F (Oct 25, 12:00 PM)99% (Oct 22, 4:00 AM)30.54 "Hg (Oct 22, 4:00 AM)
Low34 °F (Oct 27, 9:00 PM)53% (Oct 14, 1:00 PM)29.96 "Hg (Oct 22, 3:00 AM)
Average45 °F88%30.20 "Hg
* Reported Oct 14 12:00 AM — Oct 29 12:00 AM, Lódz, Weather by CustomWeather, © 2016

Note: Actual official high and low records may vary slightly from our data, if they occured in-between our weather recording intervals... More about our weather records


Lódz Weather History for the Previous 24 Hours

Scroll right to see more
Time TempWeatherWind HumidityBarometerVisibility
12:00 AM
Sat, Oct 29
50 °FPassing clouds.8 mph90%30.24 "Hg7 mi
11:00 PM
Fri, Oct 28
50 °FOvercast.8 mph91%30.25 "Hg6 mi
10:00 PM51 °FFog.9 mph93%30.24 "Hg4 mi
9:00 PM51 °FLow clouds.9 mph94%30.25 "Hg5 mi
8:00 PM50 °FDrizzle. Low clouds.9 mph95%30.24 "Hg4 mi
7:00 PM49 °FDrizzle. Low clouds.8 mph96%30.25 "Hg4 mi
6:00 PM50 °FLight rain. Low clouds.7 mph93%30.25 "Hg4 mi
5:00 PM49 °FLow clouds.6 mph93%30.25 "Hg4 mi
4:00 PM49 °FLight rain. Overcast.5 mph91%30.27 "Hg2 mi
3:00 PM50 °FLight rain. Overcast.6 mph82%30.28 "Hg6 mi
2:00 PM50 °FLight rain. Overcast.7 mph79%30.30 "Hg6 mi
1:00 PM50 °FOvercast.7 mph78%30.32 "Hg6 mi
12:00 PM49 °FFog.6 mph77%30.35 "Hg6 mi
11:00 AM47 °FFog.5 mph79%30.37 "Hg4 mi
10:00 AM45 °FFog.5 mph81%30.39 "Hg4 mi
9:00 AM43 °FFog.3 mph83%30.42 "Hg4 mi
8:00 AM42 °FFog.3 mph84%30.42 "Hg4 mi
7:00 AM41 °FFog.2 mph80%30.45 "Hg4 mi
6:00 AM41 °FFog.2 mph80%30.47 "Hg4 mi
5:00 AM40 °FFog.3 mph80%30.48 "Hg4 mi
4:00 AM40 °FFog.2 mph81%30.48 "Hg4 mi
3:00 AM40 °FFog.2 mph83%30.50 "Hg4 mi
2:00 AM39 °FFog.N/A85%30.51 "Hg4 mi
1:00 AM36 °FFog.N/A92%30.52 "Hg4 mi
Weather by CustomWeather, © 2016

See weather overviewHow to use our weather pages